Location: Caltech
(34.1382°N, 118.1253°W)
Time: 23:34:33
(UTC-07:00)

RS-15 - Visible Passes

Search period start: 01 April 2015 00:00
Search period end: 11 April 2015 00:00
Orbit: 1895 x 2149 km, 64.8° (Epoch: 29 March)

Date Brightness Start Highest point End Pass type
(mag) Time Alt. Az. Time Alt. Az. Time Alt. Az.
01 Apr 10.2 00:29:26 10° N 00:32:41 11° N 00:36:15 10° NNE visible
01 Apr 9.3 02:40:41 10° NNW 02:50:29 32° NE 03:00:55 10° ESE visible
01 Apr 8.0 04:52:29 10° NNW 05:04:05 74° WSW 05:16:06 10° SSE visible
01 Apr 9.9 21:28:24 10° W 21:36:25 21° NNW 21:44:10 10° NNE visible
01 Apr 10.2 23:53:00 10° N 23:55:13 11° N 23:57:33 10° NNE visible
02 Apr 9.6 02:04:54 10° NNW 02:13:43 26° NE 02:23:13 10° E visible
02 Apr 8.0 04:16:25 10° NNW 04:28:04 87° ENE 04:40:13 10° SSE visible
02 Apr 9.7 20:50:34 10° W 20:59:33 27° NW 21:08:24 10° NNE visible
02 Apr 10.2 23:15:17 10° NNW 23:17:45 11° N 23:20:07 10° N visible
03 Apr 9.8 01:29:07 10° NNW 01:36:47 20° NNE 01:45:07 10° ENE visible
03 Apr 8.3 03:40:25 10° NNW 03:51:57 69° ENE 04:04:00 10° SE visible
03 Apr 8.6 05:54:04 10° NW 06:03:47 30° WSW 06:13:17 10° SSW visible
03 Apr 9.5 20:13:08 10° WSW 20:22:53 34° NW 20:32:35 10° NNE visible
03 Apr 10.2 22:36:34 10° NNW 22:40:19 12° NNW 22:43:50 10° N visible
04 Apr 10.0 00:53:20 10° N 00:59:40 16° NNE 01:06:39 10° ENE visible
04 Apr 8.6 03:04:30 10° NNW 03:15:42 54° NE 03:27:28 10° SE visible
04 Apr 8.3 05:17:21 10° NW 05:27:59 41° WSW 05:38:43 10° S visible
04 Apr 9.1 19:36:04 10° WSW 19:46:22 44° NW 19:56:45 10° NNE visible
04 Apr 10.1 21:57:43 10° NW 22:02:59 14° NNW 22:07:55 10° N visible
05 Apr 10.1 00:17:31 10° N 00:22:25 14° NNE 00:27:51 10° NE visible
05 Apr 8.9 02:28:37 10° NNW 02:39:18 43° NE 02:50:34 10° ESE visible
05 Apr 8.1 04:40:54 10° NW 04:52:09 55° WSW 05:03:40 10° S visible
05 Apr 10.1 21:19:06 10° WNW 21:25:46 17° NNW 21:32:05 10° N visible
05 Apr 10.1 23:41:35 10° N 23:45:03 12° NNE 23:48:52 10° NNE visible
06 Apr 9.2 01:52:48 10° NNW 02:02:44 34° NE 02:13:19 10° ESE visible
06 Apr 7.9 04:04:40 10° NNW 04:16:14 72° WSW 04:28:13 10° SSE visible
06 Apr 10.0 20:40:51 10° W 20:48:42 21° NNW 20:56:18 10° NNE visible
06 Apr 10.2 23:05:14 10° N 23:07:36 11° N 23:10:05 10° NNE visible
07 Apr 9.5 01:17:00 10° NNW 01:26:00 26° NE 01:35:40 10° E visible
07 Apr 7.9 03:28:33 10° NNW 03:40:14 90° ENE 03:52:24 10° SSE visible
07 Apr 8.9 05:43:42 10° WNW 05:51:39 20° WSW 05:58:51 10° SW visible
07 Apr 9.8 20:02:58 10° W 20:11:49 26° NW 20:20:31 10° NNE visible
07 Apr 10.2 22:27:45 10° NNW 22:30:07 11° N 22:32:25 10° N visible
08 Apr 9.7 00:41:14 10° NNW 00:49:05 21° NNE 00:57:38 10° E visible
08 Apr 8.1 02:52:33 10° NNW 03:04:08 72° ENE 03:16:14 10° SE visible
08 Apr 8.6 05:06:21 10° NW 05:15:54 28° WSW 05:25:11 10° SSW visible
08 Apr 9.6 19:25:28 10° WSW 19:35:07 33° NW 19:44:43 10° NNE visible
08 Apr 10.2 21:49:07 10° NNW 21:52:41 12° N 21:56:00 10° N visible
09 Apr 9.9 00:05:27 10° N 00:12:00 17° NNE 00:19:13 10° ENE visible
09 Apr 8.4 02:16:38 10° NNW 02:27:54 56° NE 02:39:44 10° SE visible
09 Apr 8.3 04:29:34 10° NW 04:40:07 39° WSW 04:50:43 10° S visible
09 Apr 10.1 21:10:16 10° NW 21:15:19 13° NNW 21:20:03 10° N visible
09 Apr 10.0 23:29:38 10° N 23:34:46 14° NNE 23:40:27 10° NE visible
10 Apr 8.8 01:40:45 10° NNW 01:51:32 44° NE 02:02:53 10° ESE visible
10 Apr 8.1 03:53:06 10° NW 04:04:17 53° WSW 04:15:44 10° S visible
10 Apr 10.0 20:31:37 10° WNW 20:38:05 16° NNW 20:44:13 10° N visible
10 Apr 10.0 22:53:43 10° N 22:57:25 12° NNE 23:01:29 10° NE visible
